Home > Weather > Buchs > Past weeks

Flag for Switzerland Past Weather in Buchs, St. Gallen, Switzerland — Yesterday and Last 2 Weeks

Now
65 °F

Mild.


Feels Like: 65 °F
Forecast: 61 / 66 °F
Wind: 3 mph from South

Location: Vaduz

Current Time: Jun 25, 2016 at 7:50:14 PM

Latest Report: Jun 25, 2016 at 7:00 PM


Visibility: N/A

Pressure: 30.00 "Hg

Humidity: 85%

Dew Point: 60 °F

Location of BuchsLocation

Past Weather in Buchs — Graph

°F

Buchs Temperature Yesterday

Maximum temperature yesterday: 88 °F (at 4:00 PM)
Minimum temperature yesterday: 70 °F (at 7:00 AM)
Average temperature yesterday: 78 °F

High & Low Weather Summary for the Past Weeks

 TemperatureHumidityPressure
High88 °F (Jun 24, 4:00 PM)95% (Jun 13, 4:00 AM)30.28 "Hg (Jun 13, 4:00 AM)
Low46 °F (Jun 17, 7:00 AM)40% (Jun 24, 2:00 PM)29.57 "Hg (Jun 14, 2:00 PM)
Average63 °F77%29.94 "Hg
* Reported Jun 10 6:00 PM — Jun 25 6:00 PM, Buchs, Weather by CustomWeather, © 2016

Note: Actual official high and low records may vary slightly from our data, if they occured in-between our weather recording intervals... More about our weather records

Advertising

Buchs Weather History for the Previous 24 Hours

Scroll right to see more
 ConditionsComfort  
Time TempWeatherWind HumidityBarometerVisibility
6:00 PM
Sat, Jun 25
64 °FMild.3 mph87%29.99 "HgN/A
5:00 PM74 °FPartly sunny.14 mph53%29.90 "Hg4 mi
4:00 PM77 °FMild.2 mph54%29.87 "HgN/A
3:00 PM72 °FMild.2 mph63%29.91 "HgN/A
2:00 PM71 °FMild.3 mph65%29.90 "HgN/A
1:00 PM75 °FMild.1 mph63%29.89 "HgN/A
12:00 PM76 °FMild.2 mph65%29.89 "HgN/A
11:00 AM73 °FScattered clouds.2 mph64%29.92 "Hg4 mi
10:00 AM72 °FMild.5 mph71%29.95 "HgN/A
9:00 AM68 °FMild.3 mph79%29.96 "HgN/A
8:00 AM67 °FFog.6 mph88%29.99 "Hg4 mi
7:00 AM65 °FMild.1 mph89%29.99 "HgN/A
6:00 AM66 °FMild.No wind88%29.97 "HgN/A
5:00 AM66 °FOvercast.3 mph85%29.95 "Hg12 mi
4:00 AM64 °FMild.1 mph93%29.95 "HgN/A
3:00 AM65 °FMild.3 mph92%29.96 "HgN/A
2:00 AM66 °FOvercast.2 mph91%29.99 "Hg12 mi
1:00 AM66 °FMild.1 mph90%30.01 "HgN/A
12:00 AM67 °FMild.1 mph86%30.00 "HgN/A
11:00 PM
Fri, Jun 24
70 °FOvercast.6 mph79%29.97 "Hg12 mi
10:00 PM71 °FMild.2 mph75%29.98 "HgN/A
9:00 PM72 °FMild.5 mph84%29.98 "HgN/A
8:00 PM74 °FMild.1 mph86%29.94 "HgN/A
7:00 PM74 °FMild.3 mph87%29.93 "HgN/A
Weather by CustomWeather, © 2016

See weather overviewHow to use our weather pages